owner,sensor,date,latitude,longitude,vertical_datum,sea_water_practical_salinity,qcFlag 
TABS,ioos:station:wmo:42043:1,2012-04-01T00:00:00Z,28.9818,-94.9186,2.0,26.15,11111222 
TABS,ioos:station:wmo:42043:1,2012-04-01T00:30:00Z,28.9818,-94.9186,2.0,26.49,11111222 
TABS,ioos:station:wmo:42043:1,2012-04-01T01:00:00Z,28.9818,-94.9186,2.0,26.75,11111222 
TABS,ioos:station:wmo:42043:1,2012-04-01T01:30:00Z,28.9818,-94.9186,2.0,27.15,11111222 
TABS,ioos:station:wmo:42043:1,2012-04-01T02:00:00Z,28.9818,-94.9186,2.0,27.5,11111222 
TABS,ioos:station:wmo:42043:1,2012-04-01T02:30:00Z,28.9818,-94.9186,2.0,27.81,11111222 
TABS,ioos:station:wmo:42043:1,2012-04-01T03:00:00Z,28.9818,-94.9186,2.0,28.04,11111222 
TABS,ioos:station:wmo:42043:1,2012-04-01T03:30:00Z,28.9818,-94.9186,2.0,27.86,11111222 
TABS,ioos:station:wmo:42043:1,2012-04-01T04:00:00Z,28.9818,-94.9186,2.0,27.79,11111222 
TABS,ioos:station:wmo:42043:1,2012-04-01T04:30:00Z,28.9818,-94.9186,2.0,27.73,11111222 
TABS,ioos:station:wmo:42043:1,2012-04-01T05:00:00Z,28.9818,-94.9186,2.0,27.69,11111222 
TABS,ioos:station:wmo:42043:1,2012-04-01T05:30:00Z,28.9818,-94.9186,2.0,27.74,11111222 
TABS,ioos:station:wmo:42043:1,2012-04-01T06:00:00Z,28.9818,-94.9186,2.0,27.74,11111222 
TABS,ioos:station:wmo:42043:1,2012-04-01T06:30:00Z,28.9818,-94.9186,2.0,27.3,11111222 
TABS,ioos:station:wmo:42043:1,2012-04-01T07:00:00Z,28.9818,-94.9186,2.0,26.45,11111222 
TABS,ioos:station:wmo:42043:1,2012-04-01T07:30:00Z,28.9818,-94.9186,2.0,26.19,11111222 
TABS,ioos:station:wmo:42043:1,2012-04-01T08:00:00Z,28.9818,-94.9186,2.0,25.74,11111222 
TABS,ioos:station:wmo:42043:1,2012-04-01T08:30:00Z,28.9818,-94.9186,2.0,25.46,11111222 
TABS,ioos:station:wmo:42043:1,2012-04-01T09:00:00Z,28.9818,-94.9186,2.0,24.36,11111222 
TABS,ioos:station:wmo:42043:1,2012-04-01T09:30:00Z,28.9818,-94.9186,2.0,23.75,11111222 
TABS,ioos:station:wmo:42043:1,2012-04-01T10:00:00Z,28.9818,-94.9186,2.0,23.25,11111222 
TABS,ioos:station:wmo:42043:1,2012-04-01T10:30:00Z,28.9818,-94.9186,2.0,23.02,11111222 
TABS,ioos:station:wmo:42043:1,2012-04-01T11:00:00Z,28.9818,-94.9186,2.0,23.09,11111222 
TABS,ioos:station:wmo:42043:1,2012-04-01T11:30:00Z,28.9818,-94.9186,2.0,23.18,11111222 
TABS,ioos:station:wmo:42043:1,2012-04-01T12:00:00Z,28.9818,-94.9186,2.0,23.18,11111222 
TABS,ioos:station:wmo:42043:1,2012-04-01T12:30:00Z,28.9818,-94.9186,2.0,23.11,11111222 
TABS,ioos:station:wmo:42043:1,2012-04-01T13:00:00Z,28.9818,-94.9186,2.0,22.98,11111222 
TABS,ioos:station:wmo:42043:1,2012-04-01T13:30:00Z,28.9818,-94.9186,2.0,23.11,11111222 
TABS,ioos:station:wmo:42043:1,2012-04-01T14:00:00Z,28.9818,-94.9186,2.0,23.07,11111222 
TABS,ioos:station:wmo:42043:1,2012-04-01T14:30:00Z,28.9818,-94.9186,2.0,23.05,11111222 
TABS,ioos:station:wmo:42043:1,2012-04-01T15:00:00Z,28.9818,-94.9186,2.0,23.0,11111222 
TABS,ioos:station:wmo:42043:1,2012-04-01T15:30:00Z,28.9818,-94.9186,2.0,23.07,11111222 
TABS,ioos:station:wmo:42043:1,2012-04-01T16:00:00Z,28.9818,-94.9186,2.0,23.11,11111222 
TABS,ioos:station:wmo:42043:1,2012-04-01T16:30:00Z,28.9818,-94.9186,2.0,23.14,11111222 
TABS,ioos:station:wmo:42043:1,2012-04-01T17:00:00Z,28.9818,-94.9186,2.0,23.64,11111222 
TABS,ioos:station:wmo:42043:1,2012-04-01T17:30:00Z,28.9818,-94.9186,2.0,24.23,11111222 
TABS,ioos:station:wmo:42043:1,2012-04-01T18:00:00Z,28.9818,-94.9186,2.0,26.08,11111222 
TABS,ioos:station:wmo:42043:1,2012-04-01T18:30:00Z,28.9818,-94.9186,2.0,25.57,11111222 
TABS,ioos:station:wmo:42043:1,2012-04-01T19:00:00Z,28.9818,-94.9186,2.0,26.3,11111222 
TABS,ioos:station:wmo:42043:1,2012-04-01T19:30:00Z,28.9818,-94.9186,2.0,25.68,11111222 
TABS,ioos:station:wmo:42043:1,2012-04-01T20:00:00Z,28.9818,-94.9186,2.0,24.83,11111222 
TABS,ioos:station:wmo:42043:1,2012-04-01T20:30:00Z,28.9818,-94.9186,2.0,25.83,11111222 
TABS,ioos:station:wmo:42043:1,2012-04-01T21:00:00Z,28.9818,-94.9186,2.0,27.03,11111222 
TABS,ioos:station:wmo:42043:1,2012-04-01T21:30:00Z,28.9818,-94.9186,2.0,26.07,11111222 
TABS,ioos:station:wmo:42043:1,2012-04-01T22:00:00Z,28.9818,-94.9186,2.0,26.88,11111222 
TABS,ioos:station:wmo:42043:1,2012-04-01T22:30:00Z,28.9818,-94.9186,2.0,27.65,11111222 
TABS,ioos:station:wmo:42043:1,2012-04-01T23:00:00Z,28.9818,-94.9186,2.0,27.63,11111222 
TABS,ioos:station:wmo:42043:1,2012-04-01T23:30:00Z,28.9818,-94.9186,2.0,27.21,11111222 
TABS,ioos:station:wmo:42043:1,2012-04-02T00:00:00Z,28.9818,-94.9186,2.0,26.95,11111222 
TABS,ioos:station:wmo:42043:1,2012-04-02T00:30:00Z,28.9818,-94.9186,2.0,26.95,11111222 
TABS,ioos:station:wmo:42043:1,2012-04-02T01:00:00Z,28.9818,-94.9186,2.0,26.81,11111222 
TABS,ioos:station:wmo:42043:1,2012-04-02T01:30:00Z,28.9818,-94.9186,2.0,25.96,11111222 
TABS,ioos:station:wmo:42043:1,2012-04-02T02:00:00Z,28.9818,-94.9186,2.0,25.27,11111222 
TABS,ioos:station:wmo:42043:1,2012-04-02T02:30:00Z,28.9818,-94.9186,2.0,25.55,11111222 
TABS,ioos:station:wmo:42043:1,2012-04-02T03:00:00Z,28.9818,-94.9186,2.0,25.99,11111222 
TABS,ioos:station:wmo:42043:1,2012-04-02T03:30:00Z,28.9818,-94.9186,2.0,25.23,11111222 
TABS,ioos:station:wmo:42043:1,2012-04-02T04:00:00Z,28.9818,-94.9186,2.0,25.51,11111222 
TABS,ioos:station:wmo:42043:1,2012-04-02T04:30:00Z,28.9818,-94.9186,2.0,25.66,11111222 
TABS,ioos:station:wmo:42043:1,2012-04-02T05:00:00Z,28.9818,-94.9186,2.0,25.82,11111222 
TABS,ioos:station:wmo:42043:1,2012-04-02T05:30:00Z,28.9818,-94.9186,2.0,25.81,11111222 
TABS,ioos:station:wmo:42043:1,2012-04-02T06:00:00Z,28.9818,-94.9186,2.0,26.21,11111222 
TABS,ioos:station:wmo:42043:1,2012-04-02T06:30:00Z,28.9818,-94.9186,2.0,26.24,11111222 
TABS,ioos:station:wmo:42043:1,2012-04-02T07:00:00Z,28.9818,-94.9186,2.0,26.33,11111222 
TABS,ioos:station:wmo:42043:1,2012-04-02T07:30:00Z,28.9818,-94.9186,2.0,26.43,11111222 
TABS,ioos:station:wmo:42043:1,2012-04-02T08:00:00Z,28.9818,-94.9186,2.0,26.54,11111222 
TABS,ioos:station:wmo:42043:1,2012-04-02T08:30:00Z,28.9818,-94.9186,2.0,26.57,11111222 
TABS,ioos:station:wmo:42043:1,2012-04-02T09:00:00Z,28.9818,-94.9186,2.0,26.59,11111222 
TABS,ioos:station:wmo:42043:1,2012-04-02T09:30:00Z,28.9818,-94.9186,2.0,26.61,11111222 
TABS,ioos:station:wmo:42043:1,2012-04-02T10:00:00Z,28.9818,-94.9186,2.0,26.67,11111222 
TABS,ioos:station:wmo:42043:1,2012-04-02T10:30:00Z,28.9818,-94.9186,2.0,26.76,11111222 
TABS,ioos:station:wmo:42043:1,2012-04-02T11:00:00Z,28.9818,-94.9186,2.0,26.76,11111222 
TABS,ioos:station:wmo:42043:1,2012-04-02T11:30:00Z,28.9818,-94.9186,2.0,26.82,11111222 
TABS,ioos:station:wmo:42043:1,2012-04-02T12:00:00Z,28.9818,-94.9186,2.0,26.9,11111222 
TABS,ioos:station:wmo:42043:1,2012-04-02T12:30:00Z,28.9818,-94.9186,2.0,25.8,11111222 
TABS,ioos:station:wmo:42043:1,2012-04-02T13:00:00Z,28.9818,-94.9186,2.0,24.94,11111222 
TABS,ioos:station:wmo:42043:1,2012-04-02T13:30:00Z,28.9818,-94.9186,2.0,25.43,11111222 
TABS,ioos:station:wmo:42043:1,2012-04-02T14:00:00Z,28.9818,-94.9186,2.0,25.55,11111222 
TABS,ioos:station:wmo:42043:1,2012-04-02T14:30:00Z,28.9818,-94.9186,2.0,25.93,11111222 
TABS,ioos:station:wmo:42043:1,2012-04-02T15:00:00Z,28.9818,-94.9186,2.0,26.1,11111222 
TABS,ioos:station:wmo:42043:1,2012-04-02T15:30:00Z,28.9818,-94.9186,2.0,26.47,11111222 
TABS,ioos:station:wmo:42043:1,2012-04-02T16:00:00Z,28.9818,-94.9186,2.0,26.4,11111222 
TABS,ioos:station:wmo:42043:1,2012-04-02T16:30:00Z,28.9818,-94.9186,2.0,26.43,11111222 
TABS,ioos:station:wmo:42043:1,2012-04-02T17:00:00Z,28.9818,-94.9186,2.0,26.52,11111222 
TABS,ioos:station:wmo:42043:1,2012-04-02T17:30:00Z,28.9818,-94.9186,2.0,26.61,11111222 
TABS,ioos:station:wmo:42043:1,2012-04-02T18:00:00Z,28.9818,-94.9186,2.0,26.48,11111222 
TABS,ioos:station:wmo:42043:1,2012-04-02T18:30:00Z,28.9818,-94.9186,2.0,26.48,11111222 
TABS,ioos:station:wmo:42043:1,2012-04-02T19:00:00Z,28.9818,-94.9186,2.0,26.45,11111222 
TABS,ioos:station:wmo:42043:1,2012-04-02T19:30:00Z,28.9818,-94.9186,2.0,26.46,11111222 
TABS,ioos:station:wmo:42043:1,2012-04-02T20:00:00Z,28.9818,-94.9186,2.0,26.41,11111222 
TABS,ioos:station:wmo:42043:1,2012-04-02T20:30:00Z,28.9818,-94.9186,2.0,26.15,11111222 
TABS,ioos:station:wmo:42043:1,2012-04-02T21:00:00Z,28.9818,-94.9186,2.0,25.87,11111222 
TABS,ioos:station:wmo:42043:1,2012-04-02T21:30:00Z,28.9818,-94.9186,2.0,25.81,11111222 
TABS,ioos:station:wmo:42043:1,2012-04-02T22:00:00Z,28.9818,-94.9186,2.0,25.79,11111222 
TABS,ioos:station:wmo:42043:1,2012-04-02T22:30:00Z,28.9818,-94.9186,2.0,25.87,11111222 
TABS,ioos:station:wmo:42043:1,2012-04-02T23:00:00Z,28.9818,-94.9186,2.0,25.8,11111222 
TABS,ioos:station:wmo:42043:1,2012-04-02T23:30:00Z,28.9818,-94.9186,2.0,25.9,11111222 
TABS,ioos:station:wmo:42043:1,2012-04-03T00:00:00Z,28.9818,-94.9186,2.0,25.93,11111222 
TABS,ioos:station:wmo:42043:1,2012-04-03T00:30:00Z,28.9818,-94.9186,2.0,25.95,11111222 
TABS,ioos:station:wmo:42043:1,2012-04-03T01:00:00Z,28.9818,-94.9186,2.0,25.91,11111222 
TABS,ioos:station:wmo:42043:1,2012-04-03T01:30:00Z,28.9818,-94.9186,2.0,25.95,11111222 
TABS,ioos:station:wmo:42043:1,2012-04-03T02:00:00Z,28.9818,-94.9186,2.0,25.98,11111222 
TABS,ioos:station:wmo:42043:1,2012-04-03T02:30:00Z,28.9818,-94.9186,2.0,25.91,11111222 
TABS,ioos:station:wmo:42043:1,2012-04-03T03:00:00Z,28.9818,-94.9186,2.0,26.05,11111222 
TABS,ioos:station:wmo:42043:1,2012-04-03T03:30:00Z,28.9818,-94.9186,2.0,26.14,11111222 
TABS,ioos:station:wmo:42043:1,2012-04-03T04:00:00Z,28.9818,-94.9186,2.0,26.54,11111222 
TABS,ioos:station:wmo:42043:1,2012-04-03T04:30:00Z,28.9818,-94.9186,2.0,26.54,11111222 
TABS,ioos:station:wmo:42043:1,2012-04-03T05:00:00Z,28.9818,-94.9186,2.0,26.57,11111222 
TABS,ioos:station:wmo:42043:1,2012-04-03T05:30:00Z,28.9818,-94.9186,2.0,26.67,11111222 
TABS,ioos:station:wmo:42043:1,2012-04-03T06:00:00Z,28.9818,-94.9186,2.0,26.78,11111222 
TABS,ioos:station:wmo:42043:1,2012-04-03T06:30:00Z,28.9818,-94.9186,2.0,26.95,11111222 
TABS,ioos:station:wmo:42043:1,2012-04-03T07:00:00Z,28.9818,-94.9186,2.0,26.91,11111222 
TABS,ioos:station:wmo:42043:1,2012-04-03T07:30:00Z,28.9818,-94.9186,2.0,26.94,11111222 
TABS,ioos:station:wmo:42043:1,2012-04-03T08:00:00Z,28.9818,-94.9186,2.0,26.93,11111222 
TABS,ioos:station:wmo:42043:1,2012-04-03T08:30:00Z,28.9818,-94.9186,2.0,26.97,11111222 
TABS,ioos:station:wmo:42043:1,2012-04-03T09:00:00Z,28.9818,-94.9186,2.0,27.1,11111222 
TABS,ioos:station:wmo:42043:1,2012-04-03T09:30:00Z,28.9818,-94.9186,2.0,27.07,11111222 
TABS,ioos:station:wmo:42043:1,2012-04-03T10:00:00Z,28.9818,-94.9186,2.0,27.06,11111222 
TABS,ioos:station:wmo:42043:1,2012-04-03T10:30:00Z,28.9818,-94.9186,2.0,26.99,11111222 
TABS,ioos:station:wmo:42043:1,2012-04-03T11:00:00Z,28.9818,-94.9186,2.0,26.92,11111222 
TABS,ioos:station:wmo:42043:1,2012-04-03T11:30:00Z,28.9818,-94.9186,2.0,26.93,11111222 
TABS,ioos:station:wmo:42043:1,2012-04-03T12:00:00Z,28.9818,-94.9186,2.0,26.92,11111222 
TABS,ioos:station:wmo:42043:1,2012-04-03T12:30:00Z,28.9818,-94.9186,2.0,26.93,11111222 
TABS,ioos:station:wmo:42043:1,2012-04-03T13:00:00Z,28.9818,-94.9186,2.0,26.99,11111222 
TABS,ioos:station:wmo:42043:1,2012-04-03T13:30:00Z,28.9818,-94.9186,2.0,27.12,11111222 
TABS,ioos:station:wmo:42043:1,2012-04-03T14:00:00Z,28.9818,-94.9186,2.0,27.04,11111222 
TABS,ioos:station:wmo:42043:1,2012-04-03T14:30:00Z,28.9818,-94.9186,2.0,27.02,11111222 
TABS,ioos:station:wmo:42043:1,2012-04-03T15:00:00Z,28.9818,-94.9186,2.0,26.98,11111222 
TABS,ioos:station:wmo:42043:1,2012-04-03T15:30:00Z,28.9818,-94.9186,2.0,26.97,11111222 
TABS,ioos:station:wmo:42043:1,2012-04-03T16:00:00Z,28.9818,-94.9186,2.0,26.85,11111222 
TABS,ioos:station:wmo:42043:1,2012-04-03T16:30:00Z,28.9818,-94.9186,2.0,26.87,11111222 
TABS,ioos:station:wmo:42043:1,2012-04-03T17:00:00Z,28.9818,-94.9186,2.0,26.82,11111222 
TABS,ioos:station:wmo:42043:1,2012-04-03T17:30:00Z,28.9818,-94.9186,2.0,26.8,11111222 
TABS,ioos:station:wmo:42043:1,2012-04-03T18:00:00Z,28.9818,-94.9186,2.0,26.95,11111222 
TABS,ioos:station:wmo:42043:1,2012-04-03T18:30:00Z,28.9818,-94.9186,2.0,26.99,11111222 
TABS,ioos:station:wmo:42043:1,2012-04-03T19:00:00Z,28.9818,-94.9186,2.0,27.13,11111222 
TABS,ioos:station:wmo:42043:1,2012-04-03T19:30:00Z,28.9818,-94.9186,2.0,27.26,11111222 
TABS,ioos:station:wmo:42043:1,2012-04-03T20:00:00Z,28.9818,-94.9186,2.0,27.55,11111222 
TABS,ioos:station:wmo:42043:1,2012-04-03T20:30:00Z,28.9818,-94.9186,2.0,27.7,11111222 
TABS,ioos:station:wmo:42043:1,2012-04-03T21:00:00Z,28.9818,-94.9186,2.0,27.91,11111222 
TABS,ioos:station:wmo:42043:1,2012-04-03T21:30:00Z,28.9818,-94.9186,2.0,27.91,11111222 
TABS,ioos:station:wmo:42043:1,2012-04-03T22:00:00Z,28.9818,-94.9186,2.0,27.95,11111222 
TABS,ioos:station:wmo:42043:1,2012-04-03T22:30:00Z,28.9818,-94.9186,2.0,28.11,11111222 
TABS,ioos:station:wmo:42043:1,2012-04-03T23:00:00Z,28.9818,-94.9186,2.0,28.49,11111222 
TABS,ioos:station:wmo:42043:1,2012-04-03T23:30:00Z,28.9818,-94.9186,2.0,29.56,11111222 
TABS,ioos:station:wmo:42043:1,2012-04-04T00:00:00Z,28.9818,-94.9186,2.0,29.99,11111222 
TABS,ioos:station:wmo:42043:1,2012-04-04T00:30:00Z,28.9818,-94.9186,2.0,29.89,11111222 
TABS,ioos:station:wmo:42043:1,2012-04-04T01:00:00Z,28.9818,-94.9186,2.0,29.71,11111222 
TABS,ioos:station:wmo:42043:1,2012-04-04T01:30:00Z,28.9818,-94.9186,2.0,29.33,11111222 
TABS,ioos:station:wmo:42043:1,2012-04-04T02:00:00Z,28.9818,-94.9186,2.0,29.23,11111222 
TABS,ioos:station:wmo:42043:1,2012-04-04T02:30:00Z,28.9818,-94.9186,2.0,28.96,11111222 
TABS,ioos:station:wmo:42043:1,2012-04-04T03:00:00Z,28.9818,-94.9186,2.0,28.88,11111222 
TABS,ioos:station:wmo:42043:1,2012-04-04T03:30:00Z,28.9818,-94.9186,2.0,28.82,11111222 
TABS,ioos:station:wmo:42043:1,2012-04-04T04:00:00Z,28.9818,-94.9186,2.0,28.79,11111222 
TABS,ioos:station:wmo:42043:1,2012-04-04T04:30:00Z,28.9818,-94.9186,2.0,28.83,11111222 
TABS,ioos:station:wmo:42043:1,2012-04-04T05:00:00Z,28.9818,-94.9186,2.0,28.79,11111222 
TABS,ioos:station:wmo:42043:1,2012-04-04T05:30:00Z,28.9818,-94.9186,2.0,28.8,11111222 
TABS,ioos:station:wmo:42043:1,2012-04-04T06:00:00Z,28.9818,-94.9186,2.0,28.86,11111222 
TABS,ioos:station:wmo:42043:1,2012-04-04T06:30:00Z,28.9818,-94.9186,2.0,28.7,11111222 
TABS,ioos:station:wmo:42043:1,2012-04-04T07:00:00Z,28.9818,-94.9186,2.0,28.41,11111222 
TABS,ioos:station:wmo:42043:1,2012-04-04T07:30:00Z,28.9818,-94.9186,2.0,28.07,11111222 
TABS,ioos:station:wmo:42043:1,2012-04-04T08:00:00Z,28.9818,-94.9186,2.0,27.7,11111222 
TABS,ioos:station:wmo:42043:1,2012-04-04T08:30:00Z,28.9818,-94.9186,2.0,27.62,11111222 
TABS,ioos:station:wmo:42043:1,2012-04-04T09:00:00Z,28.9818,-94.9186,2.0,27.61,11111222 
TABS,ioos:station:wmo:42043:1,2012-04-04T09:30:00Z,28.9818,-94.9186,2.0,27.32,11111222 
TABS,ioos:station:wmo:42043:1,2012-04-04T10:00:00Z,28.9818,-94.9186,2.0,27.09,11111222 
TABS,ioos:station:wmo:42043:1,2012-04-04T10:30:00Z,28.9818,-94.9186,2.0,26.82,11111222 
TABS,ioos:station:wmo:42043:1,2012-04-04T11:00:00Z,28.9818,-94.9186,2.0,26.71,11111222 
TABS,ioos:station:wmo:42043:1,2012-04-04T11:30:00Z,28.9818,-94.9186,2.0,26.58,11111222 
TABS,ioos:station:wmo:42043:1,2012-04-04T12:00:00Z,28.9818,-94.9186,2.0,26.48,11111222 
TABS,ioos:station:wmo:42043:1,2012-04-04T12:30:00Z,28.9818,-94.9186,2.0,26.37,11111222 
TABS,ioos:station:wmo:42043:1,2012-04-04T13:00:00Z,28.9818,-94.9186,2.0,26.3,11111222 
TABS,ioos:station:wmo:42043:1,2012-04-04T13:30:00Z,28.9818,-94.9186,2.0,26.35,11111222 
TABS,ioos:station:wmo:42043:1,2012-04-04T14:00:00Z,28.9818,-94.9186,2.0,26.37,11111222 
TABS,ioos:station:wmo:42043:1,2012-04-04T14:30:00Z,28.9818,-94.9186,2.0,26.4,11111222 
TABS,ioos:station:wmo:42043:1,2012-04-04T15:00:00Z,28.9818,-94.9186,2.0,26.36,11111222 
TABS,ioos:station:wmo:42043:1,2012-04-04T15:30:00Z,28.9818,-94.9186,2.0,26.37,11111222 
TABS,ioos:station:wmo:42043:1,2012-04-04T16:00:00Z,28.9818,-94.9186,2.0,26.35,11111222 
TABS,ioos:station:wmo:42043:1,2012-04-04T16:30:00Z,28.9818,-94.9186,2.0,26.34,11111222 
TABS,ioos:station:wmo:42043:1,2012-04-04T17:00:00Z,28.9818,-94.9186,2.0,26.36,11111222 
TABS,ioos:station:wmo:42043:1,2012-04-04T17:30:00Z,28.9818,-94.9186,2.0,26.4,11111222 
TABS,ioos:station:wmo:42043:1,2012-04-04T18:00:00Z,28.9818,-94.9186,2.0,26.41,11111222 
TABS,ioos:station:wmo:42043:1,2012-04-04T18:30:00Z,28.9818,-94.9186,2.0,26.43,11111222 
TABS,ioos:station:wmo:42043:1,2012-04-04T19:00:00Z,28.9818,-94.9186,2.0,26.41,11111222 
TABS,ioos:station:wmo:42043:1,2012-04-04T19:30:00Z,28.9818,-94.9186,2.0,26.37,11111222 
TABS,ioos:station:wmo:42043:1,2012-04-04T20:00:00Z,28.9818,-94.9186,2.0,26.33,11111222 
TABS,ioos:station:wmo:42043:1,2012-04-04T20:30:00Z,28.9818,-94.9186,2.0,26.29,11111222 
TABS,ioos:station:wmo:42043:1,2012-04-04T21:00:00Z,28.9818,-94.9186,2.0,26.27,11111222 
TABS,ioos:station:wmo:42043:1,2012-04-04T21:30:00Z,28.9818,-94.9186,2.0,26.24,11111222 
TABS,ioos:station:wmo:42043:1,2012-04-04T22:00:00Z,28.9818,-94.9186,2.0,26.23,11111222 
TABS,ioos:station:wmo:42043:1,2012-04-04T22:30:00Z,28.9818,-94.9186,2.0,25.7,11111222 
TABS,ioos:station:wmo:42043:1,2012-04-04T23:00:00Z,28.9818,-94.9186,2.0,25.6,11111222 
TABS,ioos:station:wmo:42043:1,2012-04-04T23:30:00Z,28.9818,-94.9186,2.0,25.57,11111222 
TABS,ioos:station:wmo:42043:1,2012-04-05T00:00:00Z,28.9818,-94.9186,2.0,25.6,11111222 
TABS,ioos:station:wmo:42043:1,2012-04-05T00:30:00Z,28.9818,-94.9186,2.0,25.54,11111222 
TABS,ioos:station:wmo:42043:1,2012-04-05T01:00:00Z,28.9818,-94.9186,2.0,25.58,11111222 
TABS,ioos:station:wmo:42043:1,2012-04-05T01:30:00Z,28.9818,-94.9186,2.0,25.6,11111222 
TABS,ioos:station:wmo:42043:1,2012-04-05T02:00:00Z,28.9818,-94.9186,2.0,25.64,11111222 
TABS,ioos:station:wmo:42043:1,2012-04-05T02:30:00Z,28.9818,-94.9186,2.0,25.64,11111222 
TABS,ioos:station:wmo:42043:1,2012-04-05T03:00:00Z,28.9818,-94.9186,2.0,25.6,11111222 
TABS,ioos:station:wmo:42043:1,2012-04-05T03:30:00Z,28.9818,-94.9186,2.0,25.56,11111222 
TABS,ioos:station:wmo:42043:1,2012-04-05T04:00:00Z,28.9818,-94.9186,2.0,25.6,11111222 
TABS,ioos:station:wmo:42043:1,2012-04-05T04:30:00Z,28.9818,-94.9186,2.0,25.64,11111222 
TABS,ioos:station:wmo:42043:1,2012-04-05T05:00:00Z,28.9818,-94.9186,2.0,25.73,11111222 
TABS,ioos:station:wmo:42043:1,2012-04-05T05:30:00Z,28.9818,-94.9186,2.0,25.9,11111222 
TABS,ioos:station:wmo:42043:1,2012-04-05T06:00:00Z,28.9818,-94.9186,2.0,25.97,11111222 
TABS,ioos:station:wmo:42043:1,2012-04-05T06:30:00Z,28.9818,-94.9186,2.0,26.1,11111222 
TABS,ioos:station:wmo:42043:1,2012-04-05T07:00:00Z,28.9818,-94.9186,2.0,26.16,11111222 
TABS,ioos:station:wmo:42043:1,2012-04-05T07:30:00Z,28.9818,-94.9186,2.0,26.21,11111222 
TABS,ioos:station:wmo:42043:1,2012-04-05T08:00:00Z,28.9818,-94.9186,2.0,26.14,11111222 
TABS,ioos:station:wmo:42043:1,2012-04-05T08:30:00Z,28.9818,-94.9186,2.0,26.24,11111222 
TABS,ioos:station:wmo:42043:1,2012-04-05T09:00:00Z,28.9818,-94.9186,2.0,25.24,11111222 
TABS,ioos:station:wmo:42043:1,2012-04-05T09:30:00Z,28.9818,-94.9186,2.0,26.33,11111222 
TABS,ioos:station:wmo:42043:1,2012-04-05T10:00:00Z,28.9818,-94.9186,2.0,26.33,11111222 
TABS,ioos:station:wmo:42043:1,2012-04-05T10:30:00Z,28.9818,-94.9186,2.0,26.4,11111222 
TABS,ioos:station:wmo:42043:1,2012-04-05T11:00:00Z,28.9818,-94.9186,2.0,26.45,11111222 
TABS,ioos:station:wmo:42043:1,2012-04-05T11:30:00Z,28.9818,-94.9186,2.0,26.54,11111222 
TABS,ioos:station:wmo:42043:1,2012-04-05T12:00:00Z,28.9818,-94.9186,2.0,26.21,11111222 
TABS,ioos:station:wmo:42043:1,2012-04-05T12:30:00Z,28.9818,-94.9186,2.0,25.79,11111222 
TABS,ioos:station:wmo:42043:1,2012-04-05T13:00:00Z,28.9818,-94.9186,2.0,25.23,11111222 
TABS,ioos:station:wmo:42043:1,2012-04-05T13:30:00Z,28.9818,-94.9186,2.0,25.13,11111222 
TABS,ioos:station:wmo:42043:1,2012-04-05T14:00:00Z,28.9818,-94.9186,2.0,24.94,11111222 
TABS,ioos:station:wmo:42043:1,2012-04-05T14:30:00Z,28.9818,-94.9186,2.0,24.93,11111222 
TABS,ioos:station:wmo:42043:1,2012-04-05T15:00:00Z,28.9818,-94.9186,2.0,25.01,11111222 
TABS,ioos:station:wmo:42043:1,2012-04-05T15:30:00Z,28.9818,-94.9186,2.0,25.01,11111222 
TABS,ioos:station:wmo:42043:1,2012-04-05T16:00:00Z,28.9818,-94.9186,2.0,24.97,11111222 
TABS,ioos:station:wmo:42043:1,2012-04-05T16:30:00Z,28.9818,-94.9186,2.0,24.92,11111222 
TABS,ioos:station:wmo:42043:1,2012-04-05T17:00:00Z,28.9818,-94.9186,2.0,24.92,11111222 
TABS,ioos:station:wmo:42043:1,2012-04-05T17:30:00Z,28.9818,-94.9186,2.0,24.97,11111222 
TABS,ioos:station:wmo:42043:1,2012-04-05T18:00:00Z,28.9818,-94.9186,2.0,24.96,11111222 
TABS,ioos:station:wmo:42043:1,2012-04-05T18:30:00Z,28.9818,-94.9186,2.0,24.99,11111222 
TABS,ioos:station:wmo:42043:1,2012-04-05T19:00:00Z,28.9818,-94.9186,2.0,24.95,11111222 
TABS,ioos:station:wmo:42043:1,2012-04-05T19:30:00Z,28.9818,-94.9186,2.0,24.98,11111222 
TABS,ioos:station:wmo:42043:1,2012-04-05T20:00:00Z,28.9818,-94.9186,2.0,24.88,11111222 
TABS,ioos:station:wmo:42043:1,2012-04-05T20:30:00Z,28.9818,-94.9186,2.0,24.96,11111222 
TABS,ioos:station:wmo:42043:1,2012-04-05T21:00:00Z,28.9818,-94.9186,2.0,24.38,11111222 
TABS,ioos:station:wmo:42043:1,2012-04-05T21:30:00Z,28.9818,-94.9186,2.0,24.2,11111222 
TABS,ioos:station:wmo:42043:1,2012-04-05T22:00:00Z,28.9818,-94.9186,2.0,24.24,11111222 
TABS,ioos:station:wmo:42043:1,2012-04-05T22:30:00Z,28.9818,-94.9186,2.0,24.22,11111222 
TABS,ioos:station:wmo:42043:1,2012-04-05T23:00:00Z,28.9818,-94.9186,2.0,24.3,11111222 
TABS,ioos:station:wmo:42043:1,2012-04-05T23:30:00Z,28.9818,-94.9186,2.0,24.32,11111222 
TABS,ioos:station:wmo:42043:1,2012-04-06T00:00:00Z,28.9818,-94.9186,2.0,24.35,11111222 
TABS,ioos:station:wmo:42043:1,2012-04-06T00:30:00Z,28.9818,-94.9186,2.0,24.48,11111222 
TABS,ioos:station:wmo:42043:1,2012-04-06T01:00:00Z,28.9818,-94.9186,2.0,24.36,11111222 
TABS,ioos:station:wmo:42043:1,2012-04-06T01:30:00Z,28.9818,-94.9186,2.0,24.32,11111222 
TABS,ioos:station:wmo:42043:1,2012-04-06T02:00:00Z,28.9818,-94.9186,2.0,24.27,11111222 
TABS,ioos:station:wmo:42043:1,2012-04-06T02:30:00Z,28.9818,-94.9186,2.0,24.25,11111222 
TABS,ioos:station:wmo:42043:1,2012-04-06T03:00:00Z,28.9818,-94.9186,2.0,24.25,11111222 
TABS,ioos:station:wmo:42043:1,2012-04-06T03:30:00Z,28.9818,-94.9186,2.0,24.25,11111222 
TABS,ioos:station:wmo:42043:1,2012-04-06T04:00:00Z,28.9818,-94.9186,2.0,24.19,11111222 
TABS,ioos:station:wmo:42043:1,2012-04-06T04:30:00Z,28.9818,-94.9186,2.0,24.21,11111222 
TABS,ioos:station:wmo:42043:1,2012-04-06T05:00:00Z,28.9818,-94.9186,2.0,24.28,11111222 
TABS,ioos:station:wmo:42043:1,2012-04-06T05:30:00Z,28.9818,-94.9186,2.0,24.27,11111222 
TABS,ioos:station:wmo:42043:1,2012-04-06T06:00:00Z,28.9818,-94.9186,2.0,24.31,11111222 
TABS,ioos:station:wmo:42043:1,2012-04-06T06:30:00Z,28.9818,-94.9186,2.0,24.41,11111222 
TABS,ioos:station:wmo:42043:1,2012-04-06T07:00:00Z,28.9818,-94.9186,2.0,24.51,11111222 
TABS,ioos:station:wmo:42043:1,2012-04-06T07:30:00Z,28.9818,-94.9186,2.0,24.6,11111222 
TABS,ioos:station:wmo:42043:1,2012-04-06T08:00:00Z,28.9818,-94.9186,2.0,24.8,11111222 
TABS,ioos:station:wmo:42043:1,2012-04-06T08:30:00Z,28.9818,-94.9186,2.0,24.9,11111222 
TABS,ioos:station:wmo:42043:1,2012-04-06T09:00:00Z,28.9818,-94.9186,2.0,25.1,11111222 
TABS,ioos:station:wmo:42043:1,2012-04-06T09:30:00Z,28.9818,-94.9186,2.0,25.2,11111222 
TABS,ioos:station:wmo:42043:1,2012-04-06T10:00:00Z,28.9818,-94.9186,2.0,25.1,11111222 
TABS,ioos:station:wmo:42043:1,2012-04-06T10:30:00Z,28.9818,-94.9186,2.0,25.0,11111222 
TABS,ioos:station:wmo:42043:1,2012-04-06T11:00:00Z,28.9818,-94.9186,2.0,25.0,11111222 
TABS,ioos:station:wmo:42043:1,2012-04-06T11:30:00Z,28.9818,-94.9186,2.0,25.0,11111222 
TABS,ioos:station:wmo:42043:1,2012-04-06T12:00:00Z,28.9818,-94.9186,2.0,24.9,11111222 
TABS,ioos:station:wmo:42043:1,2012-04-06T12:30:00Z,28.9818,-94.9186,2.0,24.9,11111222 
TABS,ioos:station:wmo:42043:1,2012-04-06T13:00:00Z,28.9818,-94.9186,2.0,24.8,11111222 
TABS,ioos:station:wmo:42043:1,2012-04-06T13:30:00Z,28.9818,-94.9186,2.0,24.9,11111222 
TABS,ioos:station:wmo:42043:1,2012-04-06T14:00:00Z,28.9818,-94.9186,2.0,24.9,11111222 
TABS,ioos:station:wmo:42043:1,2012-04-06T14:30:00Z,28.9818,-94.9186,2.0,24.9,11111222 
TABS,ioos:station:wmo:42043:1,2012-04-06T15:00:00Z,28.9818,-94.9186,2.0,24.9,11111222 
TABS,ioos:station:wmo:42043:1,2012-04-06T15:30:00Z,28.9818,-94.9186,2.0,25.0,11111222 